Weather in Kumanovo

North Macedonia     42°08′34″N   21°42′56″E
temp.,
°C
wind,
m/s
gust,
m/s
humid.,
%
clouds,
%
prec.,
mm/h
press.,
hPa
HPBL,
m
6 march, sat
sat601:00+6n476597 0.0 1020170
04:00+5nnw457589 0.0 1021114
07:00+2n8138690 0.8 1024793
10:00+4n9126396 0.1 1026940
13:00+4n9125897 0.1 1026964
16:00+4n8124820 0.0 1026991
19:00+1n6115110 0.0 1029719
22:00−1nnw510520 0.0 1031532
7 march, sun
sun701:00−2nnw38550 0.0 1031453
04:00−2nnw36580 0.0 1030345
07:00−2n34530 0.0 1030273
10:00+3nne00330 0.0 1027647
13:00+6sse32330 0.0 1024819
16:00+7sse23380 0.0 1021666
19:00+3sse12540 0.0 102222
22:00+2sse12581 0.0 102222
8 march, mon
mon801:00+1sse227011 0.0 102124
04:000sse12892 0.0 101926
07:00+1sse238833 0.0 1019188
10:00+5s237288 0.0 1017492
13:00+9se115380 0.0 1016732
16:00+9n335595 0.0 10151031
19:00+6n237597 0.0 101774
22:00+5nnw238393 0.1 1017111
9 march, tue
tue901:00+4nnw358096 0.2 1018290
04:00+2n4695100 0.3 1018321
07:00+2nnw4695100 0.5 1019318
10:00+3n3591100 0.1 1019327
13:00+7nnw3270100 0.1 1018617
16:00+6nnw2377100 0.1 1017525
19:00+3n4594100 1.8 1018249
22:00+3nnw4595100 0.8 1019212
10 march, wed
wed1001:00+2nnw4696100 2.3 1018228
04:00+2nnw4696100 1.1 1017246
07:00+1nnw5895100 2.4 1018413
10:00+2nnw5894100 0.9 1020540
13:00+3nnw5888100 1.3 1020683
16:00+5n696685 0.0 10191042
19:00+1nnw497043 0.0 1022278
22:00−1nnw47670 0.0 1024186